[[{"header":{"parameterUnit":"m.s-1","parameterCategory":1,"la1":30.2991,"la2":30.254,"lo1":-89.0895,"lo2":-89.0444,"dy":0.0017,"dx":0.0017,"nx":28,"ny":28,"refTime":"2024-08-10T09:00:00:Z","depth":0,"parameterNumber":2,"parameterNumberName":"U-component_of_WINDS"},"data":[0,0,0,0,0,0,0,0,0,0,0,0,0,0,0,0,0,0,0,0,0,0,0,0,0,0,0,0,0,0,0,0,0,0,0,0,0,0,0,0,0,0,0,0,0,0,0,0,0,0,0,0,0,0,0,0,0,0,3.8685,3.8685,0,3.8753,3.8754,3.8755,3.8681,3.8678,3.8675,3.8673,3.8742,3.8746,3.875,0,0,0,0,0,0,0,0,0,0,0,0,0,3.8487,3.8491,3.8685,3.8685,3.8686,3.8753,3.8754,3.8755,3.8682,3.8678,3.8675,3.8672,3.874,3.8745,3.8751,0,0,0,0,0,0,0,0,0,0,0,0,0,3.8566,3.8492,3.8684,3.8658,3.8656,3.8753,3.8754,3.8755,3.8682,3.8678,3.8674,3.867,3.8738,3.8745,3.8752,3.8878,0,0,3.8772,3.8775,0,0,0,0,0,0,0,0,3.8562,3.8573,3.8661,3.866,3.8658,3.8704,3.871,3.8796,3.8683,3.8672,3.8673,3.8668,3.8733,3.8739,3.8762,3.8881,3.8884,3.8773,3.8777,3.878,3.8781,0,0,0,0,0,0,0,3.8556,3.857,3.8712,3.8662,3.8661,3.8641,3.8648,3.8726,3.8725,3.8673,3.8668,3.8677,3.8731,3.8755,3.8763,3.8885,3.8772,3.8778,3.8782,3.8785,3.9108,3.9113,0,0,0,0,0,0,3.8554,3.8566,3.871,3.8714,3.8598,3.8649,3.8656,3.8694,3.8724,3.8725,3.8681,3.8673,3.8746,3.8755,3.8765,3.8912,3.8779,3.8786,3.879,3.9104,3.9109,3.9114,0,0,0,0,0,0,3.855,3.8568,3.8707,3.8639,3.8655,3.8656,3.87,3.8697,3.8722,3.873,3.8729,3.8706,3.8743,3.8755,3.885,3.8913,3.8789,3.8795,3.9098,3.9105,3.9112,3.9209,0,0,0,0,0,0,3.8545,3.8567,3.8615,3.864,3.8659,3.8791,3.8704,3.8702,3.8734,3.8725,3.8753,3.8754,3.8741,3.884,3.8856,3.892,3.88,3.9093,3.9102,3.911,3.92,3.9218,3.9233,0,0,0,0,0,3.8538,3.864,3.8618,3.8636,3.872,3.8795,3.8806,3.8789,3.8739,3.8787,3.8792,3.8753,3.8905,3.885,3.8868,3.8935,3.9088,3.9099,3.9109,3.9192,3.9214,3.9233,0,0,0,0,0,0,3.8622,3.8643,3.8619,3.8732,3.8762,3.8783,3.8843,3.8813,3.8858,3.8848,3.8824,3.8831,3.8931,3.8943,3.8882,3.9057,3.8988,3.9003,3.9045,3.9066,3.9083,3.9076,3.8806,0,0,0,0,0,3.8654,3.8714,3.8729,3.8827,3.8844,3.8841,3.8874,3.8858,3.8888,3.89,3.8913,3.8943,3.8997,3.9033,3.9083,3.9202,3.9206,3.9257,3.9274,3.9288,3.9299,3.936,3.9382,3.9148,3.9148,3.9148,0,0,3.872,3.8739,3.8778,3.8845,3.8866,3.8928,3.8852,3.8921,3.8966,3.8911,3.8999,3.901,3.9042,3.9149,3.9196,3.9161,3.9365,3.9301,3.9312,3.9316,3.9373,3.9395,3.9414,3.9155,3.9154,3.9153,0,0,3.887,3.8892,3.8975,3.8999,3.9033,3.903,3.905,3.9075,3.908,3.9169,3.9128,3.9181,3.9276,3.9299,3.9324,3.9484,3.9448,3.9501,3.9588,3.9648,3.9666,3.9682,3.9736,3.9756,3.9513,3.9514,3.9514,0,3.8947,3.9039,3.9021,3.9093,3.9122,3.9076,3.9158,3.9182,3.9231,3.9252,3.9213,3.9329,3.9348,3.9458,3.9496,3.9519,3.9539,3.9496,3.9665,3.9681,3.9696,3.9746,3.9767,3.952,3.9519,3.9518,3.9518,0,3.9131,3.9195,3.9258,3.9306,3.9343,3.942,3.9413,3.9452,3.9434,3.9435,3.9525,3.9547,3.9599,3.9625,3.9608,3.9732,3.9709,3.9669,3.9598,3.9724,3.9771,3.9791,3.9528,3.9526,3.9524,3.9523,0,0,3.9334,3.9371,3.9394,3.9414,3.9449,3.9497,3.9572,3.9624,3.9657,3.9693,3.9753,3.9834,3.9796,3.9824,3.9809,3.9862,3.9983,3.9814,3.9815,3.9842,4.0118,4.0145,4.0168,3.9962,3.9965,3.9968,4.0114,0,3.9482,3.9611,3.9597,3.9719,3.9777,3.9734,3.9799,3.9826,3.983,3.9878,3.9882,3.9938,3.9886,3.9902,3.9953,3.9958,4.0038,3.9948,4.0014,4.0017,4.0004,4.0193,4.0223,4.0359,4.0132,4.0136,4.0138,0,3.9672,3.9714,3.9842,3.9866,3.989,3.9948,3.9993,4.0042,4.0071,4.007,4.0102,4.0077,4.015,4.0082,4.0181,4.012,4.0147,4.0153,4.0158,4.016,4.0082,4.0197,4.0402,4.0421,4.0167,4.0165,4.0163,0,3.9802,3.9891,3.9979,3.9998,4.0029,4.0071,4.0085,4.0111,4.0143,4.0183,4.0203,4.0251,4.0277,4.0314,4.0303,4.0254,4.0404,4.0334,4.0402,4.0402,4.0432,4.043,4.0641,4.0457,4.0456,4.0456,4.0455,0,3.9967,4.0046,4.0037,4.0091,4.0178,4.0161,4.0247,4.0257,4.028,4.0333,4.0301,4.0351,4.0335,4.0385,4.0378,4.0459,4.0472,4.0471,4.0467,4.0472,4.0471,4.0486,4.0475,4.0461,4.046,4.0459,4.0458,0,4.0126,4.0124,4.0215,4.0238,4.0245,4.0308,4.0326,4.0375,4.0377,4.0445,4.046,4.0462,4.0518,4.0512,4.0576,4.057,4.067,4.0657,4.066,4.0655,4.0722,4.0714,4.0946,4.0974,4.0776,4.0778,4.078,0,4.0229,4.0289,4.0318,4.0351,4.0369,4.0424,4.0455,4.0442,4.0476,4.0514,4.0559,4.0613,4.0654,4.0747,4.0753,4.0801,4.0786,4.0865,4.0793,4.0795,4.0783,4.0778,4.0782,4.0877,4.0879,4.0881,4.0883,0,4.0412,4.0407,4.0455,4.0502,4.0541,4.0578,4.0611,4.064,4.063,4.067,4.0727,4.076,4.0825,4.0877,4.0923,4.0937,4.0907,4.0906,4.0923,4.0926,4.0924,4.0922,4.0694,4.09,4.0898,4.0897,4.0896,4.0895,4.0543,4.0593,4.062,4.0674,4.0698,4.0729,4.0776,4.0784,4.0832,4.0883,4.0873,4.0936,4.0964,4.1021,4.104,4.1089,4.1061,4.1087,4.1093,4.1099,4.1104,4.092,4.1098,4.1098,4.1097,4.1097,4.1096,0,4.072,4.0736,4.0786,4.0833,4.0875,4.0846,4.0881,4.0917,4.0974,4.1002,4.1044,4.1109,4.116,4.1171,4.1219,4.1256,4.1244,4.1269,4.1264,4.1267,4.1129,4.1107,4.1278,4.1278,4.1278,4.1278,4.1278,4.1278,4.0817,4.0899,4.0898,4.0991,4.1006,4.1069,4.1091,4.1119,4.1141,4.1216,4.1258,4.1265,4.1286,4.1335,4.138,4.1382,4.14,4.143,4.1426,4.1296,4.1277,4.126,4.1239,4.1435,4.1435,4.1559,4.156,4.1561]},{"header":{"parameterUnit":"m.s-1","parameterCategory":1,"la1":30.2991,"la2":30.254,"lo1":-89.0895,"lo2":-89.0444,"dy":0.0017,"dx":0.0017,"nx":28,"ny":28,"refTime":"2024-08-10T09:00:00:Z","depth":0,"parameterNumber":3,"parameterNumberName":"V-component_of_WINDS"},"data":[0,0,0,0,0,0,0,0,0,0,0,0,0,0,0,0,0,0,0,0,0,0,0,0,0,0,0,0,0,0,0,0,0,0,0,0,0,0,0,0,0,0,0,0,0,0,0,0,0,0,0,0,0,0,0,0,0,0,2.0252,2.0253,0,2.0304,2.0304,2.0305,2.03,2.0299,2.0299,2.0298,2.0349,2.0351,2.0353,0,0,0,0,0,0,0,0,0,0,0,0,0,2.0147,2.0149,2.0252,2.0253,2.0253,2.0304,2.0304,2.0305,2.03,2.0299,2.0299,2.0298,2.0349,2.0351,2.0354,0,0,0,0,0,0,0,0,0,0,0,0,0,2.0195,2.0149,2.0252,2.0257,2.0258,2.0304,2.0304,2.0305,2.0301,2.0299,2.0298,2.0297,2.0348,2.0351,2.0354,2.0397,0,0,2.0363,2.0365,0,0,0,0,0,0,0,0,2.0192,2.0199,2.0256,2.0257,2.0258,2.0294,2.0286,2.0336,2.0301,2.0284,2.0298,2.0297,2.0332,2.0336,2.0348,2.0399,2.0402,2.0364,2.0366,2.0367,2.0368,0,0,0,0,0,0,0,2.0189,2.0196,2.0272,2.0256,2.0258,2.0256,2.0262,2.0296,2.0314,2.0286,2.0286,2.0292,2.0332,2.0345,2.035,2.0402,2.0364,2.0366,2.0368,2.037,2.049,2.0491,0,0,0,0,0,0,2.0185,2.0194,2.0271,2.0274,2.0222,2.0259,2.0265,2.0284,2.0314,2.0317,2.0293,2.0291,2.0341,2.0346,2.0351,2.0403,2.0367,2.037,2.0372,2.0488,2.049,2.0491,0,0,0,0,0,0,2.0182,2.0192,2.0269,2.0234,2.0244,2.0262,2.0283,2.0286,2.0299,2.0319,2.0322,2.0303,2.034,2.0347,2.0385,2.0405,2.0371,2.0374,2.0487,2.0489,2.0491,2.0507,0,0,0,0,0,0,2.0179,2.0191,2.0208,2.0234,2.0245,2.0303,2.0284,2.0287,2.0304,2.0303,2.0329,2.0333,2.034,2.0381,2.0389,2.0408,2.0377,2.0485,2.0488,2.049,2.0504,2.0509,2.0513,0,0,0,0,0,2.0176,2.021,2.0209,2.0218,2.0267,2.0304,2.031,2.0318,2.0306,2.0323,2.0336,2.0332,2.0401,2.0385,2.0394,2.0414,2.0484,2.0487,2.049,2.0503,2.0508,2.0512,0,0,0,0,0,0,2.0185,2.0214,2.0213,2.0257,2.0278,2.0303,2.0325,2.0323,2.0348,2.0346,2.0354,2.0359,2.0398,2.041,2.0391,2.0457,2.0441,2.0446,2.0448,2.0453,2.0457,2.0453,2.0379,0,0,0,0,0,2.0193,2.0221,2.0244,2.0281,2.0291,2.0306,2.0322,2.0326,2.0348,2.0357,2.0373,2.0394,2.042,2.0437,2.0463,2.0506,2.0511,2.0525,2.0529,2.0532,2.0536,2.0559,2.0565,2.0501,2.0501,2.0501,0,0,2.0208,2.0227,2.0244,2.0283,2.03,2.0328,2.0314,2.0344,2.0364,2.0361,2.0399,2.0411,2.0435,2.0475,2.0494,2.0487,2.0555,2.0536,2.0538,2.054,2.0562,2.0568,2.0574,2.0503,2.0503,2.0502,0,0,2.025,2.0268,2.03,2.0317,2.0343,2.0352,2.036,2.0385,2.0393,2.0431,2.0429,2.0453,2.0498,2.0515,2.0529,2.0577,2.0574,2.0585,2.0606,2.0628,2.0633,2.0637,2.0653,2.0659,2.0589,2.0589,2.0589,0,2.0266,2.0308,2.0316,2.0347,2.0363,2.0362,2.0394,2.041,2.0443,2.0454,2.0445,2.0502,2.0518,2.0562,2.0573,2.0585,2.0594,2.0582,2.0632,2.0636,2.0641,2.0656,2.0662,2.059,2.059,2.059,2.059,0,2.0326,2.0355,2.0378,2.0409,2.0429,2.046,2.0471,2.049,2.0492,2.0502,2.054,2.0559,2.0588,2.0598,2.0601,2.0643,2.0637,2.063,2.0614,2.0648,2.0662,2.0668,2.0592,2.0591,2.0591,2.0591,0,0,2.0375,2.0411,2.0419,2.0433,2.0461,2.0483,2.0513,2.0542,2.0557,2.0579,2.0604,2.0642,2.0636,2.0652,2.0656,2.0676,2.0711,2.0666,2.0667,2.0673,2.0756,2.0761,2.0767,2.0709,2.071,2.0711,2.0754,0,2.0419,2.0474,2.0482,2.0529,2.0556,2.0555,2.0581,2.0601,2.0611,2.0634,2.0645,2.0672,2.0661,2.0671,2.069,2.0702,2.0727,2.0699,2.0731,2.0732,2.0724,2.0775,2.078,2.082,2.076,2.0761,2.0761,0,2.0478,2.0502,2.0552,2.0576,2.0587,2.0611,2.0637,2.066,2.0681,2.0687,2.0705,2.0707,2.0737,2.072,2.0761,2.0742,2.0756,2.0763,2.0765,2.0768,2.0748,2.0778,2.0833,2.0838,2.077,2.077,2.0769,0,2.0508,2.0553,2.0588,2.06,2.0629,2.0645,2.0658,2.0678,2.0694,2.0717,2.0728,2.0753,2.0767,2.0787,2.0795,2.0782,2.0835,2.0819,2.084,2.084,2.0851,2.085,2.0907,2.0861,2.0861,2.0861,2.0861,0,2.0556,2.0586,2.0602,2.0624,2.0658,2.0666,2.0699,2.0711,2.0729,2.0752,2.0753,2.0775,2.0785,2.0808,2.0814,2.0847,2.0853,2.0858,2.0859,2.0857,2.0857,2.0866,2.0863,2.0862,2.0862,2.0862,2.0861,0,2.0595,2.0607,2.0645,2.0669,2.0675,2.0699,2.0719,2.0739,2.0749,2.0779,2.0786,2.0801,2.0828,2.0838,2.0871,2.0876,2.0913,2.0912,2.0906,2.0906,2.0925,2.0923,2.099,2.0999,2.0947,2.0948,2.0948,0,2.0624,2.0647,2.0674,2.0689,2.0702,2.0728,2.0745,2.0754,2.0771,2.0796,2.0814,2.0841,2.0863,2.0906,2.0919,2.0944,2.0943,2.0965,2.0947,2.0944,2.0942,2.094,2.0942,2.0968,2.0969,2.0969,2.0969,0,2.0674,2.0679,2.0703,2.0729,2.0749,2.077,2.079,2.0803,2.0815,2.0834,2.0861,2.0878,2.0912,2.0938,2.0964,2.0975,2.0974,2.0975,2.0981,2.0979,2.0974,2.0976,2.0914,2.0973,2.0973,2.0973,2.0972,2.0972,2.0709,2.0729,2.075,2.0777,2.0793,2.0812,2.0832,2.0844,2.0868,2.0896,2.09,2.0929,2.0949,2.0983,2.0996,2.1018,2.1012,2.1021,2.1023,2.1025,2.1026,2.0971,2.1023,2.1023,2.1023,2.1023,2.1023,0,2.0758,2.0772,2.0796,2.0824,2.0845,2.0843,2.0865,2.0882,2.0908,2.0927,2.0948,2.0979,2.1005,2.102,2.1045,2.106,2.106,2.1066,2.1065,2.1067,2.103,2.1022,2.1066,2.1066,2.1066,2.1066,2.1066,2.1066,2.0786,2.082,2.0827,2.0869,2.0882,2.0911,2.0924,2.094,2.0955,2.0991,2.1012,2.1022,2.1039,2.1065,2.1088,2.1092,2.11,2.1107,2.111,2.1075,2.107,2.1066,2.1058,2.1109,2.1109,2.1145,2.1145,2.1146]}]]